DW4879 Weather Reports


time (UTC)temp
C
wind
direction
speed
KPH
gust
KPH
rain 1hr
cm
rain 24hr
cm
rain mn
cm
humidity
%
barometer
mb
20260510200048 25 302 11.3 24.1 0.00 0.00 0.00 10 1022.4
20260510195556 25 308 11.3 24.1 0.00 0.00 0.00 10 1022.4
20260510195101 25 333 3.2 29.0 0.00 0.00 0.00 10 1022.2
20260510194504 25 300 14.5 29.0 0.00 0.00 0.00 10 1022.2
20260510194102 25 288 14.5 24.1 0.00 0.00 0.00 10 1022.1
20260510193502 25 278 9.7 20.9 0.00 0.00 0.00 10 1022.2
20260510193059 25 313 8.0 20.9 0.00 0.00 0.00 10 1022.2
20260510192548 25 343 9.7 22.5 0.00 0.00 0.00 10 1022.2
20260510192056 24 309 14.5 24.1 0.00 0.00 0.00 10 1022.2
20260510191547 24 22 16.1 24.1 0.00 0.00 0.00 10 1022.2
20260510191055 25 322 12.9 19.3 0.00 0.00 0.00 9 1022.3
20260510190545 25 307 6.4 22.5 0.00 0.00 0.00 10 1022.3
20260510190038 25 230 9.7 30.6 0.00 0.00 0.00 10 1022.2
20260510185544 24 191 11.3 30.6 0.00 0.00 0.00 11 1022.3
20260510185035 24 346 9.7 22.5 0.00 0.00 0.00 10 1022.5
20260510184545 25 171 11.3 19.3 0.00 0.00 0.00 9 1022.5
20260510184048 25 229 3.2 11.3 0.00 0.00 0.00 10 1022.6
20260510183556 24 213 3.2 14.5 0.00 0.00 0.00 10 1022.6
20260510183047 23 312 4.8 22.5 0.00 0.00 0.00 11 1022.7
20260510182554 23 251 9.7 22.5 0.00 0.00 0.00 10 1022.6
20260510182100 23 305 14.5 25.7 0.00 0.00 0.00 11 1022.7
20260510181504 23 316 17.7 25.7 0.00 0.00 0.00 10 1022.7
20260510181100 24 292 11.3 20.9 0.00 0.00 0.00 10 1022.6
20260510180504 25 297 9.7 19.3 0.00 0.00 0.00 11 1022.6
20260510180057 24 223 4.8 17.7 0.00 0.00 0.00 11 1022.8
20260510175544 23 355 4.8 17.7 0.00 0.00 0.00 11 1022.8
20260510175052 23 285 8.0 14.5 0.00 0.00 0.00 12 1022.9
20260510174558 23 19 1.6 11.3 0.00 0.00 0.00 11 1022.8
20260510174002 23 337 3.2 11.3 0.00 0.00 0.00 12 1022.9
20260510173559 22 340 6.4 11.3 0.00 0.00 0.00 13 1022.9
20260510173105 22 109 3.2 6.4 0.00 0.00 0.00 13 1022.9
20260510172556 22 103 1.6 9.7 0.00 0.00 0.00 13 1022.8
20260510172048 22 288 3.2 9.7 0.00 0.00 0.00 13 1022.9
20260510171601 22 113 3.2 12.9 0.00 0.00 0.00 14 1022.9
20260510171045 21 215 4.8 12.9 0.00 0.00 0.00 14 1023.1
20260510170553 21 230 3.2 11.3 0.00 0.00 0.00 14 1023.0
20260510170106 21 309 1.6 11.3 0.00 0.00 0.00 14 1023.1
20260510165533 20 227 1.6 8.0 0.00 0.00 0.00 14 1023.1
20260510165044 20 251 3.2 8.0 0.00 0.00 0.00 15 1023.1
20260510164600 20 304 0.0 8.0 0.00 0.00 0.00 14 1023.0
20260510164057 20 225 3.2 11.3 0.00 0.00 0.00 15 1023.0
20260510163547 20 211 6.4 12.9 0.00 0.00 0.00 15 1023.0
20260510163054 20 199 8.0 12.9 0.00 0.00 0.00 15 1023.0
20260510162559 19 225 6.4 11.3 0.00 0.00 0.00 15 1023.0
20260510162002 18 327 1.6 12.9 0.00 0.00 0.00 15 1022.9
20260510161559 19 284 4.8 12.9 0.00 0.00 0.00 15 1022.8
20260510161002 19 219 3.2 9.7 0.00 0.00 0.00 16 1022.9
20260510160557 18 279 1.6 9.7 0.00 0.00 0.00 16 1022.9
20260510160105 18 190 4.8 9.7 0.00 0.00 0.00 16 1022.9
20260510155555 18 175 1.6 8.0 0.00 0.00 0.00 16 1022.8
20260510155046 18 280 3.2 8.0 0.00 0.00 0.00 17 1022.9
20260510154557 17 281 3.2 8.0 0.00 0.00 0.00 17 1022.9
20260510154044 17 257 1.6 8.0 0.00 0.00 0.00 17 1022.8
20260510153535 17 290 1.6 6.4 0.00 0.00 0.00 16 1022.7
20260510153050 16 248 1.6 4.8 0.00 0.00 0.00 17 1022.8
20260510152548 16 246 1.6 8.0 0.00 0.00 0.00 17 1022.8
20260510152055 16 265 3.2 6.4 0.00 0.00 0.00 18 1022.8
20260510151547 16 259 1.6 6.4 0.00 0.00 0.00 18 1022.8
20260510151055 16 229 1.6 6.4 0.00 0.00 0.00 18 1022.8
20260510150600 16 288 1.6 6.4 0.00 0.00 0.00 19 1022.8
20260510150004 16 225 3.2 9.7 0.00 0.00 0.00 20 1022.8
20260510145603 15 198 1.6 9.7 0.00 0.00 0.00 20 1022.8
20260510145002 15 273 3.2 8.0 0.00 0.00 0.00 20 1022.8
20260510144558 15 171 3.2 8.0 0.00 0.00 0.00 20 1022.8
20260510144002 15 232 1.6 4.8 0.00 0.00 0.00 20 1022.6
20260510143556 15 227 3.2 6.4 0.00 0.00 0.00 20 1022.6
20260510143048 14 286 1.6 6.4 0.00 0.00 0.00 21 1022.6
20260510142555 14 227 1.6 6.4 0.00 0.00 0.00 23 1022.6
20260510142047 13 237 1.6 8.0 0.00 0.00 0.00 25 1022.5
20260510141554 13 207 1.6 8.0 0.00 0.00 0.00 26 1022.5
20260510141102 13 228 3.2 8.0 0.00 0.00 0.00 25 1022.5
20260510140501 13 183 1.6 6.4 0.00 0.00 0.00 28 1022.3
20260510140001 12 172 1.6 6.4 0.00 0.00 0.00 27 1022.4
20260510135509 12 166 1.6 4.8 0.00 0.00 0.00 30 1022.3
20260510135108 12 121 1.6 4.8 0.00 0.00 0.00 31 1022.4
20260510134508 12 123 1.6 4.8 0.00 0.00 0.00 31 1022.3
20260510134102 12 209 1.6 6.4 0.00 0.00 0.00 30 1022.2
20260510133505 11 227 0.0 9.7 0.00 0.00 0.00 31 1022.1
20260510133101 11 206 3.2 8.0 0.00 0.00 0.00 30 1022.0
20260510132504 11 189 3.2 8.0 0.00 0.00 0.00 29 1021.9
20260510132011 11 107 1.6 3.2 0.00 0.00 0.00 32 1021.8
20260510131501 10 107 0.0 3.2 0.00 0.00 0.00 33 1021.7
20260510131008 10 107 1.6 3.2 0.00 0.00 0.00 34 1021.8
20260510130604 10 107 1.6 4.8 0.00 0.00 0.00 34 1021.7
20260510130018 10 107 3.2 4.8 0.00 0.00 0.00 34 1021.7
20260510125604 10 98 1.6 4.8 0.00 0.00 0.00 35 1021.7
20260510125054 9 109 3.2 4.8 0.00 0.00 0.00 35 1021.6
20260510124612 8 102 3.2 4.8 0.00 0.00 0.00 36 1021.7
20260510124108 8 102 3.2 4.8 0.00 0.00 0.00 36 1021.5
20260510123507 8 96 1.6 4.8 0.00 0.00 0.00 36 1021.5
20260510123103 8 106 3.2 4.8 0.00 0.00 0.00 37 1021.4
20260510122506 8 98 3.2 4.8 0.00 0.00 0.00 38 1021.5
20260510122101 8 98 3.2 4.8 0.00 0.00 0.00 38 1021.3
20260510121504 8 98 3.2 6.4 0.00 0.00 0.00 37 1021.4
20260510121100 8 98 3.2 9.7 0.00 0.00 0.00 37 1021.3
20260510120550 8 107 4.8 9.7 0.00 0.00 0.00 35 1021.2
20260510120058 8 113 1.6 4.8 0.00 0.00 0.00 31 1021.2
20260510115605 8 113 3.2 6.4 0.00 0.00 0.00 28 1021.0
20260510115008 9 61 0.0 3.2 0.00 0.00 0.00 24 1021.1
20260510114609 9 61 0.0 3.2 0.00 0.00 0.00 24 1021.0
20260510114007 9 61 0.0 3.2 0.00 0.00 0.00 24 1020.8
20260510113601 10 61 1.6 3.2 0.00 0.00 0.00 24 1020.8
20260510113005 10 129 0.0 3.2 0.00 0.00 0.00 25 1020.8
20260510112600 10 129 0.0 4.8 0.00 0.00 0.00 27 1020.9
20260510112051 10 129 1.6 6.4 0.00 0.00 0.00 27 1020.8
20260510111559 10 113 3.2 6.4 0.00 0.00 0.00 23 1020.7
20260510111049 10 113 1.6 4.8 0.00 0.00 0.00 23 1020.6
20260510110541 10 53 3.2 6.4 0.00 0.00 0.00 23 1020.6
20260510110049 10 77 1.6 9.7 0.00 0.00 0.00 23 1020.5
20260510105540 10 123 3.2 6.4 0.00 0.00 0.00 23 1020.6
20260510105048 10 84 3.2 8.0 0.00 0.00 0.00 23 1020.6
20260510104558 10 57 4.8 8.0 0.00 0.00 0.00 23 1020.6
20260510104100 10 46 3.2 4.8 0.00 0.00 0.00 24 1020.5
20260510103551 10 67 0.0 3.2 0.00 0.00 0.00 24 1020.4
20260510103059 10 99 0.0 3.2 0.00 0.00 0.00 24 1020.3
20260510102605 10 55 0.0 3.2 0.00 0.00 0.00 24 1020.3
20260510102012 10 55 1.6 6.4 0.00 0.00 0.00 24 1020.1
20260510101603 10 63 1.6 6.4 0.00 0.00 0.00 24 1020.1
20260510101005 10 48 3.2 6.4 0.00 0.00 0.00 26 1020.1
20260510100517 10 36 3.2 6.4 0.00 0.00 0.00 26 1020.2
20260510100105 10 41 3.2 4.8 0.00 0.00 0.00 26 1020.1
20260510095511 10 42 1.6 6.4 0.00 0.00 0.00 27 1020.1
20260510095103 10 36 3.2 6.4 0.00 0.00 0.00 28 1020.1
20260510094508 9 38 1.6 4.8 0.00 0.00 0.00 28 1020.0
20260510094105 9 30 1.6 4.8 0.00 0.00 0.00 29 1019.9
20260510093503 9 340 1.6 3.2 0.00 0.00 0.00 30 1019.9
20260510093011 9 340 0.0 3.2 0.00 0.00 0.00 30 1019.8
20260510092504 9 340 1.6 3.2 0.00 0.00 0.00 31 1019.8
20260510092012 9 340 1.6 3.2 0.00 0.00 0.00 32 1019.8
20260510091605 9 340 1.6 3.2 0.00 0.00 0.00 32 1019.7
20260510091010 10 322 0.0 3.2 0.00 0.00 0.00 33 1019.7
20260510090604 10 322 1.6 3.2 0.00 0.00 0.00 33 1019.8
20260510090054 10 327 1.6 6.4 0.00 0.00 0.00 33 1019.8
20260510085604 10 344 1.6 8.0 0.00 0.00 0.00 32 1019.7
20260510085001 10 355 3.2 9.7 0.00 0.00 0.00 32 1019.9
20260510084511 11 288 1.6 9.7 0.00 0.00 0.00 31 1019.7
20260510084106 11 266 3.2 8.0 0.00 0.00 0.00 30 1019.8
20260510083508 11 317 3.2 8.0 0.00 0.00 0.00 28 1019.6
20260510083108 12 338 3.2 8.0 0.00 0.00 0.00 28 1019.6
20260510082508 12 340 3.2 8.0 0.00 0.00 0.00 28 1019.6
20260510082103 12 360 4.8 9.7 0.00 0.00 0.00 28 1019.6
20260510081552 12 315 4.8 9.7 0.00 0.00 0.00 28 1019.7
20260510081100 12 24 6.4 11.3 0.00 0.00 0.00 28 1019.6
20260510080606 12 5 6.4 9.7 0.00 0.00 0.00 28 1019.6
20260510080006 12 16 6.4 12.9 0.00 0.00 0.00 28 1019.7
20260510075601 12 17 6.4 12.9 0.00 0.00 0.00 28 1019.7
20260510075004 12 19 3.2 8.0 0.00 0.00 0.00 29 1019.6
20260510074600 12 360 3.2 9.7 0.00 0.00 0.00 29 1019.6
20260510074106 12 13 4.8 9.7 0.00 0.00 0.00 29 1019.6
20260510073507 12 11 3.2 8.0 0.00 0.00 0.00 30 1019.6
20260510073114 12 355 3.2 6.4 0.00 0.00 0.00 30 1019.7
20260510072503 13 350 3.2 6.4 0.00 0.00 0.00 30 1019.6
20260510072101 13 312 3.2 6.4 0.00 0.00 0.00 30 1019.8
20260510071549 13 315 3.2 6.4 0.00 0.00 0.00 30 1019.7
20260510071056 13 320 3.2 9.7 0.00 0.00 0.00 29 1019.7
20260510070547 13 25 4.8 9.7 0.00 0.00 0.00 29 1019.7
20260510070056 13 344 4.8 9.7 0.00 0.00 0.00 29 1019.7
20260510065548 14 350 4.8 8.0 0.00 0.00 0.00 29 1019.6
20260510065036 14 14 4.8 6.4 0.00 0.00 0.00 28 1019.5
20260510064542 14 332 3.2 8.0 0.00 0.00 0.00 28 1019.4
20260510064048 15 329 3.2 8.0 0.00 0.00 0.00 28 1019.3
20260510063555 15 351 4.8 12.9 0.00 0.00 0.00 28 1019.3
20260510063050 15 348 4.8 12.9 0.00 0.00 0.00 27 1019.2
20260510062554 15 333 4.8 9.7 0.00 0.00 0.00 27 1019.1
20260510062059 16 345 4.8 12.9 0.00 0.00 0.00 27 1019.1
20260510061508 16 346 6.4 14.5 0.00 0.00 0.00 26 1019.0
20260510061058 16 360 6.4 14.5 0.00 0.00 0.00 26 1018.9
20260510060605 16 345 4.8 16.1 0.00 0.00 0.00 25 1018.9
20260510060055 16 5 6.4 16.1 0.00 0.00 0.00 25 1018.8
20260510055600 17 12 8.0 17.7 0.00 0.00 0.00 24 1018.9
20260510055001 17 15 12.9 17.7 0.00 0.00 0.00 24 1018.9
20260510054509 18 22 4.8 9.7 0.00 0.00 0.00 23 1018.8
20260510054105 18 19 4.8 9.7 0.00 0.00 0.00 23 1018.8
20260510053508 18 338 3.2 6.4 0.00 0.00 0.00 22 1018.8
20260510053103 19 324 3.2 6.4 0.00 0.00 0.00 22 1018.8
20260510052504 19 306 3.2 6.4 0.00 0.00 0.00 22 1018.8
20260510052011 20 278 1.6 4.8 0.00 0.00 0.00 22 1018.7
20260510051506 20 242 1.6 4.8 0.00 0.00 0.00 21 1018.7
20260510051011 20 256 0.0 3.2 0.00 0.00 0.00 21 1018.7
20260510050603 20 242 0.0 4.8 0.00 0.00 0.00 21 1018.8
20260510050005 20 229 1.6 4.8 0.00 0.00 0.00 21 1018.8
20260510045519 20 277 0.0 8.0 0.00 0.00 0.00 21 1018.8
20260510045018 20 240 0.0 8.0 0.00 0.00 0.00 20 1018.8
20260510044524 20 223 1.6 8.0 0.00 0.00 0.00 20 1018.7
20260510044028 20 229 3.2 8.0 0.00 0.00 0.00 20 1018.8
20260510043537 20 224 1.6 12.9 0.00 0.00 0.00 20 1018.7
20260510043043 20 196 3.2 12.9 0.00 0.00 0.00 20 1018.8
20260510042550 20 225 3.2 11.3 0.00 0.00 0.00 20 1018.7
20260510042041 20 208 4.8 12.9 0.00 0.00 0.00 20 1018.9
20260510041551 21 209 1.6 12.9 0.00 0.00 0.00 20 1018.9
20260510041056 21 265 4.8 12.9 0.00 0.00 0.00 20 1018.7
20260510040605 21 254 3.2 16.1 0.00 0.00 0.00 19 1018.7
20260510040004 21 213 4.8 16.1 0.00 0.00 0.00 19 1018.8
20260510035511 21 290 6.4 16.1 0.00 0.00 0.00 19 1018.8
20260510035002 21 295 4.8 8.0 0.00 0.00 0.00 20 1018.7
20260510034559 21 292 4.8 12.9 0.00 0.00 0.00 20 1018.8
20260510034106 21 290 4.8 16.1 0.00 0.00 0.00 20 1018.7
20260510033508 21 259 4.8 12.9 0.00 0.00 0.00 20 1018.7
20260510033020 21 222 1.6 19.3 0.00 0.00 0.00 20 1018.7
20260510032521 21 255 8.0 19.3 0.00 0.00 0.00 20 1018.7
20260510032026 21 236 8.0 29.0 0.00 0.00 0.00 20 1018.8
20260510031531 21 259 9.7 32.2 0.00 0.00 0.00 20 1018.8
20260510031039 21 264 12.9 30.6 0.00 0.00 0.00 19 1018.9
20260510030545 21 315 16.1 30.6 0.00 0.00 0.00 19 1018.9
20260510030053 21 286 16.1 38.6 0.00 0.00 0.00 19 1018.8
20260510025544 21 321 22.5 38.6 0.00 0.00 0.00 18 1018.7
20260510025052 21 322 17.7 30.6 0.00 0.00 0.00 19 1018.6
20260510024543 21 314 16.1 27.4 0.00 0.00 0.00 19 1018.4
20260510024033 21 311 16.1 27.4 0.00 0.00 0.00 19 1018.4
20260510023540 21 314 16.1 25.7 0.00 0.00 0.00 19 1018.4
20260510023046 21 348 14.5 27.4 0.00 0.00 0.00 19 1018.3
20260510022554 21 334 14.5 30.6 0.00 0.00 0.00 19 1018.2
20260510022045 21 326 19.3 32.2 0.00 0.00 0.00 19 1018.0
20260510021553 21 350 20.9 32.2 0.00 0.00 0.00 20 1017.9
20260510021058 21 5 12.9 22.5 0.00 0.00 0.00 20 1017.9
20260510020501 21 10 11.3 29.0 0.00 0.00 0.00 20 1017.8
20260510020002 21 345 12.9 29.0 0.00 0.00 0.00 20 1017.8
20260510015510 21 334 14.5 29.0 0.00 0.00 0.00 20 1017.8
20260510015106 21 339 12.9 27.4 0.00 0.00 0.00 20 1017.7
20260510014508 22 13 14.5 25.7 0.00 0.00 0.00 19 1017.6
20260510014102 22 347 14.5 41.8 0.00 0.00 0.00 19 1017.5
20260510013504 22 27 24.1 41.8 0.00 0.00 0.00 19 1017.5
20260510013008 22 360 20.9 30.6 0.00 0.00 0.00 18 1017.4
20260510012604 23 342 17.7 29.0 0.00 0.00 0.00 18 1017.3
20260510012005 23 329 16.1 30.6 0.00 0.00 0.00 17 1017.1
20260510011601 23 319 16.1 30.6 0.00 0.00 0.00 17 1017.0
20260510011051 23 307 14.5 27.4 0.00 0.00 0.00 17 1016.9
20260510010559 23 360 16.1 27.4 0.00 0.00 0.00 18 1016.9
20260510010050 23 321 12.9 24.1 0.00 0.00 0.00 19 1016.9
20260510005558 23 360 14.5 25.7 0.00 0.00 0.00 19 1016.9
20260510005048 23 360 16.1 32.2 0.00 0.00 0.00 19 1016.9
20260510004538 23 329 17.7 32.2 0.00 0.00 0.00 18 1016.9
20260510004046 24 15 22.5 32.2 0.00 0.00 0.00 18 1016.8
20260510003537 24 5 16.1 32.2 0.00 0.00 0.00 18 1016.8
20260510003056 24 338 22.5 35.4 0.00 0.00 0.00 18 1017.2
20260510002550 24 36 19.3 35.4 0.00 0.00 0.00 18 1017.0
20260510002058 23 329 20.9 32.2 0.00 0.00 0.00 19 1017.1
20260510001549 23 331 20.9 32.2 0.00 0.00 0.00 19 1016.9
20260510001057 23 338 17.7 33.8 0.00 0.00 0.00 19 1016.7
20260510000605 23 25 19.3 33.8 0.00 0.00 0.00 19 1016.8
20260510000008 23 349 16.1 33.8 0.00 0.00 0.00 20 1016.9
20260509235601 23 340 19.3 38.6 0.00 0.00 0.00 20 1016.8
20260509235003 23 22 25.7 41.8 0.00 0.00 0.00 20 1017.0
20260509234614 23 355 25.7 41.8 0.00 0.00 0.00 19 1016.7
20260509234105 24 336 24.1 35.4 0.00 0.00 0.00 19 1016.8
20260509233558 24 5 22.5 38.6 0.00 0.00 0.00 18 1016.8
20260509233104 25 33 24.1 38.6 0.00 0.00 0.00 17 1016.8
20260509232505 25 329 27.4 38.6 0.00 0.00 0.00 17 1016.8
20260509232017 25 338 20.9 33.8 0.00 0.00 0.00 16 1016.7
20260509231519 26 348 16.1 41.8 0.00 0.00 0.00 12 1016.5
20260509231024 26 348 25.7 43.5 0.00 0.00 0.00 12 1016.6
20260509230532 26 296 16.1 45.1 0.00 0.00 0.00 12 1016.5
20260509230046 26 297 17.7 45.1 0.00 0.00 0.00 12 1016.6
20260509225547 26 295 22.5 40.2 0.00 0.00 0.00 12 1016.5
20260509225036 26 327 19.3 41.8 0.00 0.00 0.00 12 1016.5
20260509224554 26 321 29.0 41.8 0.00 0.00 0.00 12 1016.5
20260509224037 26 317 22.5 32.2 0.00 0.00 0.00 12 1016.6
20260509223541 27 290 19.3 32.2 0.00 0.00 0.00 11 1016.6
20260509223052 27 310 17.7 43.5 0.00 0.00 0.00 11 1016.6
20260509222558 27 314 16.1 43.5 0.00 0.00 0.00 11 1016.7
20260509222046 27 292 22.5 45.1 0.00 0.00 0.00 11 1016.8
20260509221553 27 300 24.1 45.1 0.00 0.00 0.00 12 1016.9
20260509221059 27 309 17.7 35.4 0.00 0.00 0.00 12 1016.9
20260509220605 27 337 17.7 37.0 0.00 0.00 0.00 12 1017.0
20260509220058 27 292 24.1 37.0 0.00 0.00 0.00 11 1016.9
20260509215549 27 303 24.1 33.8 0.00 0.00 0.00 11 1017.1
20260509215057 27 267 16.1 38.6 0.00 0.00 0.00 10 1017.1
20260509214548 27 303 25.7 38.6 0.00 0.00 0.00 11 1017.1
20260509214059 27 315 20.9 37.0 0.00 0.00 0.00 9 1017.2
20260509213544 27 306 24.1 37.0 0.00 0.00 0.00 11 1017.3
20260509213054 27 273 24.1 35.4 0.00 0.00 0.00 10 1017.3
20260509212558 27 319 14.5 32.2 0.00 0.00 0.00 11 1017.4
20260509212048 26 262 17.7 32.2 0.00 0.00 0.00 9 1017.4
20260509211557 26 296 17.7 32.2 0.00 0.00 0.00 12 1017.4
20260509211102 26 307 19.3 35.4 0.00 0.00 0.00 11 1017.7
20260509210505 26 285 20.9 35.4 0.00 0.00 0.00 10 1017.7
20260509210104 26 303 16.1 32.2 0.00 0.00 0.00 12 1017.7
20260509205503 26 299 19.3 29.0 0.00 0.00 0.00 12 1017.7
20260509205010 27 317 17.7 41.8 0.00 0.00 0.00 10 1017.7
20260509204517 27 313 27.4 43.5 0.00 0.00 0.00 11 1017.7
20260509204023 27 294 25.7 43.5 0.00 0.00 0.00 10 1017.7
20260509203530 27 288 19.3 33.8 0.00 0.00 0.00 11 1017.7
20260509203050 27 276 17.7 33.8 0.00 0.00 0.00 11 1017.7
20260509202545 27 278 16.1 41.8 0.00 0.00 0.00 11 1017.8
20260509202035 27 288 25.7 41.8 0.00 0.00 0.00 11 1017.9
20260509201543 27 275 12.9 30.6 0.00 0.00 0.00 12 1017.8
20260509201048 27 281 16.1 32.2 0.00 0.00 0.00 13 1018.2
20260509200556 27 232 11.3 30.6 0.00 0.00 0.00 13 1018.1